Location: Unspecified
(0.0000°N, 0.0000°E)
Time: 17:25:15
(UTC+00:00)

Envisat - Pass Details

Date: 21 January 2020
Orbit: 764 x 766 km, 98.1° (Epoch: 23 January)

Event Time Altitude Azimuth Distance (km) Brightness Sun altitude
Rises 05:33:05 0° 35° (NE) 3,215 6.4 -8.9°
Reaches altitude 10° 05:35:45 10° 48° (NE) 2,293 5.9 -8.3°
Maximum altitude 05:39:51 25° 102° (ESE) 1,499 5.7 -7.3°
Drops below altitude 10° 05:43:58 10° 157° (SSE) 2,301 6.2 -6.4°
Sets 05:46:38 0° 170° (S) 3,230 6.7 -5.7°
